Погода в Такасаки

Япония     36°19′28″N   139°00′25″E
темп.,
°C
ветер,
м/с
пор.,
м/с
влажн.,
%
обл.,
%
осадки,
мм/ч
давл.,
гПа
погр.,
м
4 августа, ср
ср400:00+27ссз117696 0.0 101336
03:00+26з127959 0.0 101384
06:00+26з227491 0.0 1013187
09:00+30в01595 0.0 1012793
12:00+34в224690 0.0 10101464
15:00+35в32416 0.0 10081878
18:00+33юв234865 0.1 1007362
21:00+29в126478 0.1 1009169
5 августа, чт
чт500:00+27ссв12685 0.0 1009231
03:00+26з11721 0.0 100947
06:00+26з12731 0.0 1009214
09:00+31всв10550 0.0 1008769
12:00+34в22430 0.0 10061396
15:00+35вюв33320 0.0 10041773
18:00+33ююв25380 0.0 1004302
21:00+29в1551100 0.0 1006323
6 августа, пт
пт600:00+27юз0162100 0.0 1006111
03:00+26з1168100 0.0 1006109
06:00+25зсз1269100 0.0 1006236
09:00+29в115995 0.0 1006871
12:00+33вюв334525 0.0 10051534
15:00+35вюв443398 0.0 10032030
18:00+32вюв4741100 0.0 1003903
21:00+28вюв3662100 0.0 1005736
7 августа, сб
сб700:00+26в2374100 0.1 1005517
03:00+25всв1181100 0.3 1004224
06:00+24в1187100 0.8 1005230
09:00+24с0189100 1.6 1004259
12:00+23сз1295100 3.8 1003201
15:00+23ссв1299100 15.0 1002249
18:00+24всв2698100 3.8 1001443
21:00+24в3998100 11.6 1000808
8 августа, вс
вс800:00+24всв489884 3.8 998515
03:00+24всв71599100 21.6 9921090
06:00+24всв81599100 40.4 9871114
09:00+23з61496100 100.8 988680
12:00+28зсз61472100 3.7 9901057
15:00+31зсз61357100 3.7 9921572
18:00+28зсз51258100 0.0 996816
21:00+25з3668100 0.0 999167